[[{"header":{"parameterUnit":"m.s-1","parameterCategory":1,"la1":30.2991,"la2":30.254,"lo1":-89.0895,"lo2":-89.0444,"dy":0.0017,"dx":0.0017,"nx":28,"ny":28,"refTime":"2023-08-11T21:00:00:Z","depth":0,"parameterNumber":2,"parameterNumberName":"U-component_of_WINDS"},"data":[0,0,0,0,0,0,0,0,0,0,0,0,0,0,0,0,0,0,0,0,0,0,0,0,0,0,0,0,0,0,0,0,0,0,0,0,0,0,0,0,0,0,0,0,0,0,0,0,0,0,0,0,0,0,0,0,0,0,2.9072,2.9073,0,2.9176,2.9177,2.9178,2.9167,2.9165,2.9163,2.9162,2.9276,2.928,2.9285,0,0,0,0,0,0,0,0,0,0,0,0,0,2.8872,2.8876,2.9072,2.9073,2.9075,2.9176,2.9177,2.9179,2.9167,2.9165,2.9163,2.9161,2.9274,2.928,2.9285,0,0,0,0,0,0,0,0,0,0,0,0,0,2.8966,2.8877,2.9072,2.9081,2.9083,2.9175,2.9177,2.9179,2.9167,2.9165,2.9162,2.916,2.9273,2.9279,2.9286,2.9379,0,0,2.9307,2.931,0,0,0,0,0,0,0,0,2.8961,2.8973,2.9078,2.908,2.9083,2.9156,2.9149,2.9246,2.9168,2.9136,2.9162,2.9159,2.9239,2.9248,2.9273,2.9384,2.9389,2.9308,2.9312,2.9315,2.9317,0,0,0,0,0,0,0,2.8954,2.8969,2.9113,2.908,2.9082,2.9082,2.9093,2.9167,2.92,2.9138,2.9137,2.915,2.9239,2.9267,2.9276,2.9391,2.9308,2.9314,2.9318,2.9321,2.9587,2.959,0,0,0,0,0,0,2.8944,2.8963,2.911,2.9116,2.9014,2.9088,2.91,2.9135,2.9199,2.9206,2.9152,2.9149,2.9256,2.9268,2.928,2.9395,2.9315,2.9321,2.9325,2.9585,2.9588,2.9591,0,0,0,0,0,0,2.894,2.8957,2.9106,2.904,2.9059,2.9094,2.9134,2.9138,2.9166,2.9209,2.9216,2.9173,2.9255,2.927,2.9355,2.9399,2.9325,2.9331,2.9581,2.9586,2.959,2.9626,0,0,0,0,0,0,2.8934,2.8956,2.8989,2.904,2.9062,2.9177,2.9136,2.9142,2.9177,2.9174,2.9231,2.9238,2.9254,2.9345,2.9362,2.9407,2.9336,2.9577,2.9583,2.9588,2.9621,2.9631,2.9639,0,0,0,0,0,2.8927,2.8996,2.8991,2.9009,2.9104,2.9179,2.9192,2.9206,2.918,2.9216,2.9244,2.9237,2.9391,2.9353,2.9372,2.9421,2.9575,2.9581,2.9588,2.9617,2.9629,2.9639,0,0,0,0,0,0,2.8952,2.9003,2.8998,2.9085,2.9128,2.9177,2.9222,2.9218,2.927,2.9266,2.9284,2.9297,2.9383,2.941,2.9367,2.9516,2.948,2.9491,2.9495,2.9507,2.9516,2.9509,2.9342,0,0,0,0,0,2.8967,2.9021,2.9064,2.9137,2.9158,2.9186,2.9219,2.9227,2.9272,2.9291,2.9325,2.9372,2.9432,2.9471,2.9527,2.9624,2.9639,2.9667,2.9676,2.9684,2.9694,2.975,2.9765,2.9613,2.9613,2.9613,0,0,2.9,2.9035,2.9068,2.9143,2.9176,2.9235,2.9202,2.9264,2.9309,2.9301,2.9383,2.941,2.9464,2.9556,2.9598,2.9581,2.9739,2.9692,2.9698,2.9704,2.9759,2.9773,2.9786,2.9617,2.9617,2.9616,0,0,2.909,2.912,2.9186,2.922,2.927,2.9289,2.9305,2.9355,2.9372,2.9454,2.945,2.9505,2.9606,2.9645,2.9678,2.9785,2.9781,2.9803,2.9852,2.9907,2.9919,2.993,2.9971,2.9985,2.9812,2.9812,2.9812,0,2.9125,2.921,2.922,2.9284,2.9319,2.9312,2.9381,2.9414,2.9482,2.9507,2.9487,2.9615,2.965,2.9753,2.9779,2.9804,2.9826,2.9797,2.9916,2.9927,2.9937,2.9977,2.9992,2.9815,2.9814,2.9814,2.9814,0,2.9253,2.9312,2.9359,2.9423,2.9463,2.9528,2.9551,2.9591,2.9595,2.9617,2.9702,2.9744,2.9811,2.9835,2.984,2.994,2.9928,2.9911,2.9876,2.9954,2.9992,3.0007,2.9818,2.9817,2.9817,2.9816,0,0,2.9363,2.9431,2.9448,2.9478,2.9534,2.9582,2.9648,2.9711,2.9746,2.9793,2.9852,2.9938,2.9924,2.9961,2.9971,3.0019,3.0104,2.9997,2.9999,3.0018,3.022,3.0234,3.0251,3.0101,3.0104,3.0106,3.0217,0,2.946,2.9575,2.9587,2.9692,2.9749,2.9744,2.9803,2.9845,2.9868,2.9921,2.9947,3.0009,2.9983,3.0007,3.0053,3.0084,3.0146,3.0076,3.016,3.0163,3.0149,3.027,3.0285,3.0387,3.0231,3.0233,3.0235,0,2.959,2.9639,2.9749,2.9799,2.9823,2.9875,2.9935,2.9985,3.0034,3.0048,3.009,3.0094,3.0166,3.0126,3.0228,3.018,3.0215,3.0236,3.024,3.0251,3.0205,3.0287,3.0419,3.0436,3.0258,3.0256,3.0254,0,2.9663,2.9757,2.9835,2.986,2.9919,2.9957,2.9984,3.003,3.0068,3.0121,3.0146,3.0208,3.0242,3.0291,3.0313,3.0281,3.0415,3.0376,3.0432,3.0431,3.0462,3.046,3.0605,3.048,3.048,3.0479,3.0479,0,2.9773,2.9841,2.9869,2.9917,2.9995,3.0009,3.0086,3.0111,3.0153,3.0209,3.0209,3.0262,3.0285,3.0343,3.0361,3.0445,3.046,3.0475,3.048,3.0477,3.0475,3.0502,3.0497,3.0483,3.0483,3.0482,3.0481,0,2.9868,2.9889,2.9974,3.0023,3.0037,3.0092,3.0136,3.0184,3.0206,3.0277,3.0294,3.0329,3.0398,3.0423,3.0507,3.0519,3.0617,3.0614,3.0599,3.0601,3.0656,3.0652,3.0826,3.085,3.0706,3.0708,3.0709,0,2.9938,2.999,3.0044,3.008,3.0108,3.0166,3.0205,3.0221,3.0262,3.0322,3.0365,3.0432,3.0487,3.0597,3.0631,3.0696,3.0697,3.0753,3.0707,3.0703,3.0702,3.0699,3.0706,3.0763,3.0764,3.0765,3.0766,0,3.0061,3.0069,3.0122,3.0181,3.0226,3.0273,3.0319,3.0349,3.0373,3.0419,3.0487,3.053,3.0615,3.0683,3.0749,3.0781,3.078,3.078,3.0797,3.0796,3.0787,3.0796,3.0626,3.0777,3.0776,3.0775,3.0775,3.0774,3.0148,3.0195,3.0241,3.0301,3.0337,3.038,3.0429,3.0456,3.0512,3.0581,3.0588,3.0663,3.0713,3.0802,3.0836,3.0897,3.0882,3.0906,3.0913,3.0919,3.0924,3.0775,3.0909,3.0909,3.0909,3.0908,3.0908,0,3.0274,3.0303,3.0358,3.0422,3.047,3.0461,3.0511,3.0554,3.0619,3.0664,3.0718,3.0798,3.0865,3.0904,3.0972,3.1013,3.1015,3.1031,3.103,3.1038,3.0932,3.0912,3.1029,3.1029,3.1029,3.1029,3.1029,3.1029,3.0345,3.0425,3.0439,3.0538,3.0567,3.0638,3.0668,3.0709,3.0746,3.0835,3.0889,3.0914,3.0958,3.1029,3.1091,3.1101,3.1128,3.1146,3.1155,3.1057,3.1044,3.1033,3.1014,3.115,3.1151,3.1256,3.1257,3.1258]},{"header":{"parameterUnit":"m.s-1","parameterCategory":1,"la1":30.2991,"la2":30.254,"lo1":-89.0895,"lo2":-89.0444,"dy":0.0017,"dx":0.0017,"nx":28,"ny":28,"refTime":"2023-08-11T21:00:00:Z","depth":0,"parameterNumber":3,"parameterNumberName":"V-component_of_WINDS"},"data":[0,0,0,0,0,0,0,0,0,0,0,0,0,0,0,0,0,0,0,0,0,0,0,0,0,0,0,0,0,0,0,0,0,0,0,0,0,0,0,0,0,0,0,0,0,0,0,0,0,0,0,0,0,0,0,0,0,0,1.8513,1.8514,0,1.8546,1.8546,1.8546,1.8552,1.8552,1.8551,1.8551,1.8582,1.8583,1.8584,0,0,0,0,0,0,0,0,0,0,0,0,0,1.8453,1.8454,1.8513,1.8514,1.8514,1.8545,1.8546,1.8546,1.8552,1.8552,1.8551,1.8551,1.8582,1.8583,1.8584,0,0,0,0,0,0,0,0,0,0,0,0,0,1.8481,1.8454,1.8513,1.8521,1.8522,1.8545,1.8546,1.8546,1.8552,1.8552,1.8551,1.8551,1.8581,1.8583,1.8585,1.8603,0,0,1.859,1.859,0,0,0,0,0,0,0,0,1.848,1.8483,1.8519,1.852,1.8521,1.8544,1.8536,1.8565,1.8552,1.854,1.8551,1.8551,1.857,1.8572,1.8579,1.8604,1.8605,1.859,1.8591,1.8591,1.8592,0,0,0,0,0,0,0,1.8478,1.8482,1.8526,1.852,1.8521,1.8521,1.8525,1.8542,1.8557,1.8541,1.8542,1.8546,1.857,1.8578,1.858,1.8606,1.859,1.8591,1.8592,1.8593,1.8644,1.8644,0,0,0,0,0,0,1.8475,1.848,1.8525,1.8527,1.8499,1.8522,1.8527,1.8537,1.8557,1.8559,1.8546,1.8546,1.8575,1.8578,1.8581,1.8602,1.8591,1.8593,1.8594,1.8644,1.8644,1.8644,0,0,0,0,0,0,1.8473,1.8479,1.8524,1.8504,1.851,1.8524,1.8536,1.8538,1.8546,1.856,1.8563,1.8551,1.8575,1.8579,1.8597,1.8603,1.8594,1.8595,1.8643,1.8644,1.8644,1.8644,0,0,0,0,0,0,1.8472,1.8478,1.8486,1.8504,1.8511,1.854,1.8536,1.8539,1.8549,1.8549,1.8566,1.8568,1.8575,1.8594,1.8598,1.8605,1.8596,1.8643,1.8643,1.8644,1.8644,1.8645,1.8645,0,0,0,0,0,1.8469,1.8485,1.8487,1.8492,1.8521,1.854,1.8544,1.8552,1.8549,1.8556,1.8565,1.8567,1.8601,1.8596,1.8601,1.8608,1.8642,1.8643,1.8644,1.8643,1.8644,1.8645,0,0,0,0,0,0,1.8468,1.8488,1.849,1.8512,1.8524,1.8541,1.8551,1.8554,1.8567,1.8566,1.8575,1.8579,1.8596,1.8604,1.8597,1.8625,1.8621,1.8623,1.8619,1.862,1.8621,1.8619,1.8598,0,0,0,0,0,1.847,1.8485,1.8501,1.8519,1.8525,1.8537,1.8546,1.855,1.8564,1.8569,1.8579,1.8591,1.8604,1.8613,1.8626,1.8644,1.8647,1.8651,1.8652,1.8653,1.8654,1.8662,1.8664,1.8647,1.8647,1.8647,0,0,1.8475,1.8488,1.8496,1.8519,1.8529,1.8543,1.8541,1.8557,1.8566,1.8571,1.8588,1.8596,1.861,1.8627,1.8636,1.8634,1.8659,1.8654,1.8655,1.8656,1.8663,1.8665,1.8666,1.8648,1.8648,1.8648,0,0,1.849,1.8502,1.8517,1.8527,1.8543,1.855,1.8553,1.8569,1.8575,1.8592,1.8595,1.8606,1.8629,1.8638,1.8646,1.8661,1.8663,1.8665,1.867,1.8678,1.8679,1.868,1.8684,1.8686,1.8667,1.8667,1.8667,0,1.8494,1.8516,1.8525,1.8539,1.8548,1.8552,1.8566,1.8575,1.8594,1.8599,1.8598,1.8625,1.8635,1.8653,1.8657,1.8663,1.8666,1.8664,1.8678,1.868,1.8681,1.8685,1.8686,1.8667,1.8667,1.8667,1.8667,0,1.8519,1.8534,1.8544,1.8561,1.8571,1.8585,1.8594,1.8603,1.8606,1.8613,1.8629,1.8641,1.8655,1.866,1.8664,1.8679,1.8677,1.8677,1.8674,1.8682,1.8686,1.8688,1.8667,1.8667,1.8667,1.8667,0,0,1.8536,1.8556,1.856,1.8566,1.8583,1.8593,1.8607,1.8621,1.8627,1.8639,1.8649,1.8668,1.8667,1.8675,1.868,1.8686,1.8696,1.8685,1.8685,1.8686,1.871,1.871,1.8712,1.8697,1.8697,1.8697,1.8709,0,1.8552,1.8577,1.8583,1.8604,1.8616,1.8619,1.863,1.864,1.8647,1.8657,1.8663,1.8676,1.8675,1.8679,1.8686,1.8693,1.8701,1.8693,1.8705,1.8705,1.8701,1.8714,1.8714,1.8725,1.8711,1.8711,1.8711,0,1.8575,1.8587,1.8608,1.862,1.8625,1.8636,1.8648,1.8658,1.8669,1.8673,1.8681,1.8684,1.8696,1.8692,1.8708,1.8702,1.8707,1.8711,1.8712,1.8713,1.8709,1.8715,1.8728,1.8729,1.8714,1.8713,1.8713,0,1.8583,1.8604,1.8619,1.8625,1.864,1.8647,1.8653,1.8663,1.8671,1.8681,1.8685,1.8697,1.8703,1.8711,1.8717,1.8713,1.8731,1.8728,1.8733,1.8733,1.8737,1.8737,1.8751,1.8742,1.8742,1.8742,1.8741,0,1.86,1.8612,1.8622,1.8631,1.8645,1.8652,1.8664,1.8671,1.8679,1.8689,1.8692,1.87,1.8708,1.8717,1.8721,1.8732,1.8735,1.8738,1.8739,1.8737,1.8737,1.8741,1.874,1.8742,1.8742,1.8742,1.8742,0,1.8611,1.8618,1.8635,1.8647,1.865,1.8659,1.8669,1.8677,1.8683,1.8695,1.8698,1.8706,1.8717,1.8723,1.8736,1.8739,1.8751,1.8752,1.8748,1.8748,1.8753,1.8752,1.8769,1.8771,1.8761,1.8761,1.8762,0,1.8621,1.863,1.8643,1.865,1.8656,1.8667,1.8674,1.868,1.8687,1.8699,1.8705,1.8716,1.8725,1.8741,1.8748,1.8757,1.8758,1.8763,1.8759,1.8757,1.8757,1.8756,1.8756,1.8764,1.8764,1.8764,1.8764,0,1.8637,1.864,1.865,1.8661,1.8669,1.8678,1.8687,1.8692,1.87,1.8707,1.8718,1.8725,1.8738,1.8748,1.8757,1.8763,1.8764,1.8765,1.8767,1.8765,1.8762,1.8762,1.8749,1.8765,1.8765,1.8765,1.8765,1.8765,1.8647,1.8655,1.8665,1.8675,1.8682,1.869,1.8698,1.8704,1.8713,1.8724,1.8727,1.8738,1.8746,1.876,1.8765,1.8773,1.8772,1.8774,1.8775,1.8775,1.8775,1.8761,1.8775,1.8775,1.8775,1.8775,1.8775,0,1.8662,1.8668,1.8678,1.869,1.8698,1.8699,1.8708,1.8714,1.8724,1.8732,1.874,1.8751,1.876,1.8767,1.8776,1.8781,1.8782,1.8783,1.8783,1.8783,1.8776,1.8773,1.8782,1.8782,1.8782,1.8782,1.8782,1.8782,1.8671,1.8683,1.8687,1.8702,1.8708,1.8719,1.8724,1.873,1.8736,1.8749,1.8757,1.8761,1.8768,1.8777,1.8785,1.8787,1.879,1.8791,1.8792,1.8785,1.8784,1.8783,1.8781,1.8791,1.8791,1.8799,1.8799,1.8799]}]]